BEIDOU-3 G3

Last updated on Sat Aug 15 2026 00:03:02 GMT+0000 (Coordinated Universal Time)

1 45807U 20040A 26226.58979475 -.00000369 00000+0 00000+0 0 9999 2 45807 2.5869 67.4690 0002191 293.3711 285.0463 1.00272321 22658
UTC large
Height (km)
Speed (km/s)
/
Latitude / Longitude
Inclination (degrees)
Orbital Period (minutes)
Azimuth
Elevation
Range (km)
Doppler Factor

Next 0 passes for location: London (51.5072 / 0.1276)

No passes found over London.
BEIDOU-3 G3